FW1708 Weather Reports


time (UTC)temp
F
wind
direction
speed
knots
gust
knots
rain 1hr
in
rain 24hr
in
rain mn
in
humidity
%
barometer
mb
20260504204537 72 218 2.6 7.8 0.00 0.00 0.00 41 1010.7
20260504203037 71 150 0.9 9.6 0.00 0.00 0.00 40 1010.8
20260504201536 72 240 2.6 7.0 0.00 0.00 0.00 41 1011.0
20260504200034 71 255 3.5 9.6 0.00 0.00 0.00 42 1011.0
20260504194534 71 262 3.5 8.7 0.00 0.00 0.00 42 1011.2
20260504193035 71 248 2.6 7.0 0.00 0.00 0.00 41 1011.2
20260504191529 70 248 4.3 8.7 0.00 0.00 0.00 40 1011.3
20260504190028 70 234 2.6 7.8 0.00 0.00 0.00 41 1011.5
20260504184524 70 265 1.7 9.6 0.00 0.00 0.00 41 1011.8
20260504183025 70 287 5.2 8.7 0.00 0.00 0.00 40 1011.9
20260504181522 69 246 3.5 7.8 0.00 0.00 0.00 43 1012.1
20260504180020 69 255 6.1 12.2 0.00 0.00 0.00 40 1012.2
20260504174516 69 235 1.7 9.6 0.00 0.00 0.00 42 1012.5
20260504173025 69 254 2.6 9.6 0.00 0.00 0.00 41 1012.7
20260504171518 68 251 2.6 8.7 0.00 0.00 0.00 44 1012.9
20260504110107 46 258 0.9 3.5 0.00 0.00 0.00 83 1015.5
20260504081537 40 258 0.0 0.0 0.00 0.00 0.00 81 1015.4
20260504050016 47 259 0.0 1.7 0.00 0.00 0.00 62 1015.2
20260504044531 46 259 0.0 2.6 0.00 0.00 0.00 65 1015.3
20260504043009 43 259 0.0 1.7 0.00 0.00 0.00 70 1015.2
20260504041506 44 259 0.0 0.0 0.00 0.00 0.00 69 1015.2
20260504040003 44 259 0.0 0.0 0.00 0.00 0.00 67 1015.0
20260504034502 45 258 0.0 0.0 0.00 0.00 0.00 66 1014.9
20260504033002 46 257 0.0 0.0 0.00 0.00 0.00 65 1014.8
20260504031502 47 258 0.0 0.0 0.00 0.00 0.00 63 1014.8
20260504030001 47 360 0.0 1.7 0.00 0.00 0.00 63 1014.7
20260504024501 46 259 0.0 0.9 0.00 0.00 0.00 64 1014.8
20260504023100 46 360 0.0 0.0 0.00 0.00 0.00 65 1014.8
20260504021602 47 360 0.0 0.0 0.00 0.00 0.00 61 1014.8
20260504014603 49 258 0.0 0.0 0.00 0.00 0.00 58 1014.6
20260504013059 50 360 0.0 0.0 0.00 0.00 0.00 57 1014.4
20260504011559 50 360 0.0 0.0 0.00 0.00 0.00 55 1014.3
20260504004557 54 360 0.0 0.0 0.00 0.00 0.00 49 1014.0
20260504003056 56 259 0.0 0.9 0.00 0.00 0.00 45 1013.7
20260504001612 57 260 1.7 3.5 0.00 0.00 0.00 42 1013.6
20260504000056 57 274 1.7 5.2 0.00 0.00 0.00 40 1013.4
20260503234554 58 296 3.5 7.0 0.00 0.00 0.00 39 1013.3
20260503233054 59 264 1.7 6.1 0.00 0.00 0.00 39 1013.2
20260503231554 59 261 1.7 3.5 0.00 0.00 0.00 37 1013.2
20260503230053 59 274 3.5 6.1 0.00 0.00 0.00 36 1013.1
20260503224553 60 252 3.5 9.6 0.00 0.00 0.00 36 1013.0
20260503223052 60 292 2.6 7.8 0.00 0.00 0.00 36 1013.0
20260503221552 60 289 5.2 11.3 0.00 0.00 0.00 34 1013.1
20260503220106 60 257 3.5 7.8 0.00 0.00 0.00 35 1013.0
20260503214551 60 317 2.6 8.7 0.00 0.00 0.00 35 1013.0
20260503213050 60 247 3.5 9.6 0.00 0.00 0.00 35 1012.9
20260503211602 60 251 2.6 7.0 0.00 0.00 0.00 36 1012.8
20260503210054 60 263 4.3 10.4 0.00 0.00 0.00 35 1012.9